GW0704 Weather Reports


time (UTC)temp
C
wind
direction
speed
KPH
gust
KPH
rain 1hr
cm
rain 24hr
cm
rain mn
cm
humidity
%
barometer
mb
20260507071404 7 102 0.0 12.9 0.00 2.18 0.05 91 1003.7
20260507070904 7 110 4.8 19.3 0.00 2.18 0.05 91 1003.4
20260507065904 7 88 8.0 14.5 0.00 2.18 0.05 91 1003.2
20260507065404 7 74 1.6 16.1 0.00 2.18 0.05 91 1003.5
20260507064905 7 81 4.8 16.1 0.00 2.18 0.05 91 1003.6
20260507064404 7 73 4.8 19.3 0.00 2.18 0.05 91 1003.3
20260507063904 7 85 9.7 19.3 0.00 2.18 0.05 92 1003.1
20260507063404 7 65 4.8 19.3 0.00 2.18 0.05 92 1003.2
20260507062904 7 92 3.2 12.9 0.00 2.18 0.05 92 1003.1
20260507062404 7 78 8.0 27.4 0.00 2.18 0.05 93 1003.0
20260507061904 7 101 3.2 12.9 0.00 2.18 0.05 93 1003.2
20260507061404 7 97 1.6 19.3 0.00 2.18 0.05 93 1003.0
20260507060904 7 83 0.0 14.5 0.00 2.18 0.05 94 1003.1
20260507055904 7 82 3.2 12.9 0.00 2.18 0.05 94 1003.0
20260507055404 7 85 3.2 14.5 0.00 2.18 0.05 94 1002.9
20260507054904 8 85 4.8 14.5 0.00 2.18 0.05 94 1002.7
20260507054403 7 79 1.6 16.1 0.00 2.18 0.05 95 1002.5
20260507053904 8 107 0.0 0.0 0.00 2.18 0.05 95 1002.8
20260507053404 8 107 0.0 0.0 0.00 2.18 0.05 95 1002.7
20260507052904 8 107 0.0 0.0 0.00 2.18 0.05 95 1002.8
20260507052404 8 107 0.0 0.0 0.03 2.18 0.05 95 1002.3
20260507051904 8 107 0.0 0.0 0.03 2.18 0.05 94 1002.7
20260507050904 8 107 3.2 11.3 0.05 2.18 0.05 94 1002.8
20260507050404 8 107 4.8 14.5 0.05 2.18 0.05 94 1002.7
20260507045904 8 80 4.8 14.5 0.05 2.18 0.05 94 1002.8
20260507045404 8 117 0.0 0.0 0.05 2.18 0.05 94 1003.0
20260507044904 8 117 0.0 0.0 0.05 2.18 0.05 94 1002.9
20260507044404 8 117 1.6 14.5 0.05 2.18 0.05 94 1002.7
20260507043904 8 115 8.0 19.3 0.08 2.18 0.05 94 1002.8
20260507043404 8 80 4.8 16.1 0.08 2.18 0.05 94 1003.1
20260507041904 8 86 1.6 19.3 0.08 2.16 0.03 94 1003.1
20260507041404 8 71 4.8 22.5 0.05 2.13 0.00 94 1003.0
20260507040904 8 73 9.7 19.3 0.05 2.13 0.00 94 1003.1
20260507040404 8 80 8.0 19.3 0.08 2.13 0.00 94 1003.1
20260507035904 8 97 3.2 22.5 0.08 2.13 2.13 94 1003.0
20260507035404 8 106 11.3 24.1 0.10 2.13 2.13 94 1002.9
20260507034904 9 91 8.0 22.5 0.10 2.13 2.13 94 1002.8
20260507033904 9 63 4.8 19.3 0.13 2.11 2.11 94 1002.8
20260507033404 9 93 11.3 25.7 0.13 2.11 2.11 94 1002.4
20260507032903 9 79 8.0 20.9 0.13 2.11 2.11 94 1002.8
20260507031904 9 72 9.7 20.9 0.10 2.08 2.08 94 1002.6
20260507030904 10 79 4.8 22.5 0.13 2.08 2.08 95 1002.5
20260507030404 10 110 6.4 20.9 0.10 2.06 2.06 95 1002.4
20260507025404 10 92 6.4 19.3 0.08 2.03 2.03 95 1002.5
20260507024904 10 88 4.8 19.3 0.08 2.03 2.03 95 1002.3
20260507024404 10 88 9.7 20.9 0.05 2.01 2.01 95 1002.3
20260507023904 11 91 11.3 19.3 0.03 1.98 1.98 95 1002.4
20260507022404 11 90 0.0 0.0 0.05 1.98 1.98 96 1002.1
20260507021404 11 90 0.0 0.0 0.05 1.98 1.98 96 1002.0
20260507020904 11 90 0.0 0.0 0.03 1.96 1.96 96 1001.9
20260507020404 11 90 0.0 0.0 0.05 1.96 1.96 96 1001.9
20260507015404 12 90 0.0 0.0 0.08 1.96 1.96 96 1001.9
20260507014904 12 90 0.0 0.0 0.10 1.96 1.96 96 1002.0
20260507014404 12 90 0.0 0.0 0.13 1.96 1.96 96 1001.9
20260507013904 12 90 0.0 0.0 0.15 1.96 1.96 96 1001.8
20260507012904 12 90 0.0 0.0 0.33 1.96 1.96 96 1001.9
20260507012404 12 90 1.6 12.9 0.41 1.93 1.93 96 1001.8
20260507011404 12 90 1.6 12.9 0.46 1.93 1.93 96 1002.0
20260507010904 12 90 4.8 14.5 0.51 1.93 1.93 96 1001.9
20260507010404 12 93 3.2 12.9 0.48 1.91 1.91 96 1001.8
20260507005404 13 101 0.0 0.0 0.51 1.88 1.88 96 1001.8
20260507004904 13 101 0.0 0.0 0.48 1.85 1.85 96 1001.7
20260507004405 13 101 0.0 0.0 0.48 1.83 1.83 96 1001.6
20260507003904 13 101 1.6 12.9 0.48 1.80 1.80 96 1001.6
20260507002404 13 341 1.6 8.0 0.23 1.52 1.52 96 1001.4
20260507001904 13 284 0.0 0.0 0.23 1.50 1.50 96 1001.2
20260507001405 13 284 0.0 0.0 0.20 1.47 1.47 96 1001.0
20260507000904 13 284 0.0 0.0 0.15 1.42 1.42 96 1001.0
20260507000405 13 284 1.6 11.3 0.15 1.42 1.42 96 1001.0
20260506235904 13 284 0.0 0.0 0.13 1.40 1.40 96 1001.0
20260506235404 13 284 0.0 0.0 0.13 1.37 1.37 96 1000.9
20260506234905 13 284 0.0 0.0 0.13 1.37 1.37 96 1000.9
20260506234404 13 284 1.6 14.5 0.10 1.35 1.35 96 1000.9
20260506233904 14 286 4.8 20.9 0.08 1.32 1.32 96 1001.0
20260506233404 14 275 3.2 19.3 0.08 1.32 1.32 96 1001.0
20260506232404 14 275 0.0 0.0 0.05 1.32 1.30 95 1001.1
20260506231904 14 275 1.6 9.7 0.03 1.30 1.27 95 1001.2
20260506231404 14 275 4.8 14.5 0.03 1.30 1.27 95 1001.2
20260506230904 15 275 8.0 16.1 0.03 1.30 1.27 95 1001.2
20260506230404 15 293 0.0 4.8 0.03 1.30 1.27 95 1001.3
20260506224905 15 282 1.6 9.7 0.00 1.30 1.24 95 1001.3
20260506223905 15 282 4.8 16.1 0.03 1.32 1.24 95 1001.5
20260506223404 15 298 0.0 12.9 0.03 1.32 1.24 95 1001.5
20260506222905 15 298 0.0 12.9 0.05 1.32 1.24 94 1001.6
20260506222404 15 298 4.8 14.5 0.08 1.32 1.24 95 1001.7
20260506220904 15 325 0.0 4.8 0.10 1.35 1.24 94 1001.8
20260506220404 15 325 4.8 12.9 0.13 1.42 1.24 95 1001.9
20260506215904 15 325 0.0 4.8 0.13 1.47 1.24 95 1001.9
20260506215404 15 325 1.6 14.5 0.13 1.47 1.24 95 1002.0
20260506214904 15 325 0.0 9.7 0.15 1.47 1.24 96 1002.0
20260506214404 15 326 1.6 8.0 0.13 1.45 1.22 96 1002.0
20260506213904 15 326 3.2 14.5 0.15 1.45 1.22 96 1002.0
20260506213404 15 331 0.0 0.0 0.15 1.45 1.22 96 1002.0
20260506212904 15 331 4.8 16.1 0.13 1.42 1.19 96 1002.1
20260506212404 15 315 6.4 16.1 0.13 1.40 1.17 96 1002.2
20260506211404 15 355 1.6 9.7 0.13 1.37 1.14 96 1002.2
20260506210904 15 355 0.0 0.0 0.13 1.37 1.14 96 1002.2
20260506210403 15 355 0.0 14.5 0.10 1.35 1.12 96 1002.2
20260506205904 15 348 1.6 14.5 0.13 1.35 1.12 96 1002.3
20260506205403 15 322 0.0 0.0 0.13 1.35 1.12 96 1002.1
20260506203904 14 276 0.0 0.0 0.13 1.30 1.07 96 1002.0
20260506202904 14 297 4.8 16.1 0.15 1.30 1.07 96 1001.9
20260506201904 14 269 0.0 0.0 0.13 1.24 1.02 96 1002.0
20260506201404 14 269 0.0 0.0 0.15 1.24 1.02 96 1002.0
20260506200905 14 269 1.6 9.7 0.18 1.24 1.02 96 1002.1
20260506200404 14 269 4.8 14.5 0.20 1.24 1.02 96 1002.3
20260506195904 14 215 0.0 11.3 0.25 1.22 0.99 96 1002.4
20260506195404 14 147 0.0 4.8 0.43 1.22 0.99 96 1002.5
20260506194404 14 93 0.0 0.0 0.76 1.19 0.97 97 1002.6
20260506193904 14 93 0.0 0.0 0.74 1.17 0.94 97 1002.8
20260506193404 14 93 0.0 0.0 0.74 1.14 0.91 97 1002.8
20260506192904 14 93 0.0 0.0 0.76 1.14 0.91 96 1002.8
20260506192404 14 93 0.0 0.0 0.81 1.14 0.91 96 1002.7
20260506191904 14 93 0.0 0.0 0.84 1.12 0.89 96 1002.9
20260506190904 14 93 0.0 0.0 0.81 1.07 0.84 96 1003.3
20260506190403 14 93 0.0 0.0 0.79 1.04 0.81 96 1003.4
20260506185904 14 93 0.0 0.0 0.74 0.97 0.74 95 1003.3
20260506185404 14 93 0.0 11.3 0.56 0.79 0.56 95 1003.2
20260506184904 14 96 4.8 12.9 0.30 0.53 0.30 95 1003.4
20260506184404 14 207 0.0 0.0 0.20 0.43 0.20 95 1003.3
20260506183904 14 207 0.0 0.0 0.20 0.43 0.20 94 1003.4
20260506183404 15 207 0.0 0.0 0.18 0.41 0.18 94 1003.4
20260506182904 15 207 0.0 0.0 0.15 0.38 0.15 94 1003.3
20260506181904 15 207 0.0 0.0 0.05 0.28 0.05 93 1003.3
20260506180904 15 207 0.0 0.0 0.03 0.25 0.03 92 1003.4
20260506175904 15 207 0.0 0.0 0.00 0.23 0.00 91 1003.4
20260506175404 15 207 0.0 0.0 0.00 0.23 0.00 91 1003.5
20260506174904 15 207 0.0 0.0 0.00 0.23 0.00 92 1003.4
20260506174404 15 207 0.0 0.0 0.00 0.23 0.00 89 1003.5
20260506173904 15 207 0.0 0.0 0.00 0.23 0.00 89 1003.6
20260506173404 15 207 3.2 9.7 0.00 0.23 0.00 89 1003.8
20260506172404 15 207 4.8 9.7 0.00 0.23 0.00 89 1003.8
20260506171904 15 207 3.2 9.7 0.00 0.23 0.00 89 1003.9
20260506171404 15 207 1.6 9.7 0.00 0.23 0.00 88 1004.1
20260506170904 15 207 1.6 11.3 0.00 0.23 0.00 88 1004.3
20260506170404 15 207 0.0 11.3 0.00 0.23 0.00 88 1004.3
20260506165404 15 207 0.0 0.0 0.00 0.23 0.00 88 1004.5
20260506164404 15 207 0.0 0.0 0.00 0.23 0.00 87 1004.5
20260506163404 15 207 6.4 12.9 0.00 0.23 0.00 86 1004.8
20260506162904 15 207 8.0 12.9 0.00 0.23 0.00 86 1005.0
20260506161904 15 253 6.4 12.9 0.00 0.23 0.00 86 1005.1
20260506161404 15 253 8.0 12.9 0.00 0.23 0.00 85 1005.3
20260506160905 15 246 9.7 14.5 0.00 0.23 0.00 85 1005.3
20260506160404 15 252 3.2 12.9 0.00 0.23 0.00 85 1005.6
20260506155905 15 261 4.8 14.5 0.00 0.23 0.00 84 1005.7
20260506155404 15 223 4.8 14.5 0.00 0.23 0.00 84 1005.6
20260506154905 15 252 4.8 12.9 0.00 0.23 0.00 85 1005.8
20260506154404 15 252 0.0 0.0 0.00 0.23 0.00 84 1005.8
20260506153905 15 252 0.0 0.0 0.00 0.23 0.00 83 1005.7
20260506153404 15 252 0.0 0.0 0.00 0.23 0.00 83 1005.7
20260506152904 15 252 0.0 0.0 0.00 0.23 0.00 84 1005.6
20260506152404 15 252 0.0 0.0 0.00 0.23 0.00 83 1005.5
20260506151904 15 252 0.0 0.0 0.00 0.23 0.00 83 1005.6
20260506151404 15 252 0.0 11.3 0.00 0.23 0.00 84 1005.6
20260506150904 15 252 0.0 0.0 0.00 0.23 0.00 84 1005.5
20260506150405 14 252 0.0 0.0 0.00 0.23 0.00 84 1005.7
20260506145905 14 252 4.8 8.0 0.00 0.23 0.00 84 1005.7
20260506144904 14 252 6.4 12.9 0.00 0.23 0.00 84 1005.6
20260506144404 14 252 3.2 8.0 0.00 0.23 0.00 83 1005.6
20260506143905 14 252 0.0 12.9 0.00 0.23 0.00 83 1005.7
20260506143404 14 252 1.6 14.5 0.00 0.23 0.00 84 1005.5
20260506142904 14 249 6.4 12.9 0.00 0.23 0.00 84 1005.5
20260506142404 14 250 1.6 12.9 0.00 0.23 0.00 84 1005.4
20260506141905 14 222 3.2 14.5 0.00 0.23 0.00 84 1005.5
20260506141404 14 223 8.0 19.3 0.00 0.23 0.00 83 1005.5
20260506140905 15 208 4.8 11.3 0.00 0.23 0.00 84 1005.7
20260506140404 15 169 1.6 12.9 0.00 0.23 0.00 83 1005.8
20260506135404 14 138 0.0 4.8 0.00 0.23 0.00 83 1005.9
20260506134904 14 137 0.0 11.3 0.00 0.23 0.00 83 1006.0
20260506134404 14 137 0.0 0.0 0.00 0.23 0.00 84 1006.0
20260506133904 14 137 0.0 0.0 0.00 0.23 0.00 84 1005.9
20260506133404 14 137 3.2 11.3 0.00 0.23 0.00 85 1006.0
20260506132904 14 85 0.0 1.6 0.00 0.23 0.00 85 1005.9
20260506131904 13 85 0.0 0.0 0.00 0.23 0.00 86 1005.9
20260506131404 13 85 0.0 0.0 0.00 0.23 0.00 86 1005.9
20260506130904 13 85 0.0 0.0 0.00 0.23 0.00 86 1005.9
20260506130404 13 85 0.0 0.0 0.00 0.23 0.00 87 1006.0
20260506125904 13 85 0.0 0.0 0.00 0.23 0.00 87 1006.2
20260506125404 13 85 0.0 0.0 0.00 0.23 0.00 87 1006.2
20260506124904 13 85 0.0 0.0 0.00 0.23 0.00 87 1006.2
20260506124404 13 85 0.0 0.0 0.00 0.23 0.00 87 1006.3
20260506123904 13 85 0.0 0.0 0.00 0.23 0.00 87 1006.5
20260506122903 13 85 0.0 0.0 0.00 0.23 0.00 87 1006.5
20260506122404 13 85 0.0 0.0 0.00 0.23 0.00 87 1006.6
20260506120904 13 85 0.0 0.0 0.00 0.23 0.00 89 1006.7
20260506120404 13 85 0.0 0.0 0.00 0.23 0.00 89 1006.6
20260506115404 13 85 0.0 0.0 0.00 0.23 0.00 89 1006.7
20260506114905 13 85 0.0 0.0 0.00 0.23 0.00 89 1006.8
20260506114404 13 85 0.0 4.8 0.00 0.23 0.00 89 1006.8
20260506113904 13 85 4.8 8.0 0.00 0.23 0.00 89 1006.5
20260506113404 13 85 3.2 8.0 0.00 0.23 0.00 89 1006.4
20260506112905 13 85 3.2 8.0 0.00 0.23 0.00 90 1006.4
20260506112404 13 81 0.0 0.0 0.00 0.23 0.00 91 1006.6
20260506111904 13 81 0.0 0.0 0.00 0.23 0.00 91 1006.6
20260506110404 13 81 0.0 0.0 0.00 0.23 0.00 92 1006.6
20260506105904 13 81 0.0 0.0 0.00 0.23 0.00 93 1006.6
20260506105404 13 81 0.0 0.0 0.00 0.23 0.00 93 1006.6
20260506104904 12 81 0.0 0.0 0.00 0.23 0.00 93 1006.6
20260506104404 12 81 0.0 0.0 0.00 0.23 0.00 93 1006.7
20260506103404 12 81 0.0 0.0 0.00 0.23 0.00 93 1006.6
20260506102904 12 81 0.0 0.0 0.00 0.23 0.00 93 1006.8
20260506102404 12 81 0.0 0.0 0.00 0.23 0.00 92 1006.6
20260506101904 12 81 0.0 0.0 0.00 0.23 0.00 92 1006.5
20260506101404 12 81 0.0 0.0 0.00 0.23 0.00 91 1006.5
20260506100904 12 81 0.0 0.0 0.00 0.23 0.00 91 1006.5
20260506100404 12 81 0.0 0.0 0.00 0.23 0.00 92 1006.5
20260506095903 12 81 0.0 0.0 0.00 0.23 0.00 92 1006.5
20260506095404 12 81 0.0 0.0 0.00 0.23 0.00 92 1006.5
20260506094904 12 81 0.0 0.0 0.00 0.23 0.00 91 1006.6
20260506094404 12 81 0.0 0.0 0.00 0.23 0.00 90 1006.6
20260506093904 12 81 0.0 0.0 0.00 0.23 0.00 90 1006.6
20260506093404 12 81 0.0 0.0 0.00 0.23 0.00 90 1006.6
20260506092904 12 81 0.0 0.0 0.00 0.23 0.00 90 1006.4
20260506091904 12 81 0.0 0.0 0.00 0.23 0.00 91 1006.4
20260506091404 12 81 0.0 0.0 0.00 0.23 0.00 91 1006.3
20260506090904 12 81 0.0 0.0 0.00 0.23 0.00 91 1006.2
20260506090404 12 81 0.0 0.0 0.00 0.23 0.00 90 1006.2
20260506085904 12 81 0.0 0.0 0.00 0.23 0.00 90 1006.2
20260506085404 13 81 0.0 0.0 0.00 0.23 0.00 91 1006.2
20260506084904 13 81 0.0 0.0 0.00 0.23 0.00 91 1006.2
20260506084404 13 81 0.0 0.0 0.00 0.23 0.00 91 1006.1
20260506083404 13 81 0.0 0.0 0.00 0.23 0.00 92 1006.1
20260506082904 13 81 0.0 0.0 0.00 0.23 0.00 92 1006.2
20260506081904 13 81 0.0 0.0 0.00 0.23 0.00 91 1006.3
20260506081404 13 81 0.0 0.0 0.00 0.23 0.00 91 1006.4
20260506080905 13 81 0.0 0.0 0.00 0.23 0.00 91 1006.5
20260506080403 13 81 0.0 0.0 0.00 0.23 0.00 91 1006.7
20260506073404 13 81 0.0 0.0 0.00 0.23 0.00 91 1006.4
20260506072905 13 81 0.0 12.9 0.00 0.23 0.00 91 1006.5
20260506072404 13 70 0.0 9.7 0.00 0.23 0.00 91 1006.5